Location: Newark
(48.5156°N, 1.8989°W)
Time: 02:32:31
(UTC+00:00)

Transit 4A - Pass Details

Date: 28 November 2019
Orbit: 870 x 975 km, 66.8° (Epoch: 07 December)

Event Time Altitude Azimuth Distance (km) Brightness Sun altitude
Exits shadow 03:17:27 22° 84° (E) 1,817 9.9 -41.6°
Drops below altitude 10° 03:19:54 10° 102° (ESE) 2,523 10.7 -41.2°
Sets 03:22:37 0° 112° (ESE) 3,453 11.5 -40.8°
